[[{"header":{"parameterUnit":"m.s-1","parameterCategory":1,"la1":30.2991,"la2":30.254,"lo1":-89.0895,"lo2":-89.0444,"dy":0.0017,"dx":0.0017,"nx":28,"ny":28,"refTime":"2026-02-08T09:00:00:Z","depth":0,"parameterNumber":2,"parameterNumberName":"U-component_of_WINDS"},"data":[0,0,0,0,0,0,0,0,0,0,0,0,0,0,0,0,0,0,0,0,0,0,0,0,0,0,0,0,0,0,0,0,0,0,0,0,0,0,0,0,0,0,0,0,0,0,0,0,0,0,0,0,0,0,0,0,0,0,-1.9491,-1.9492,0,-1.9535,-1.9535,-1.9536,-1.9454,-1.9452,-1.9449,-1.9446,-1.9493,-1.9496,-1.95,0,0,0,0,0,0,0,0,0,0,0,0,0,-1.9339,-1.9342,-1.9491,-1.9492,-1.9492,-1.9535,-1.9535,-1.9536,-1.9455,-1.9452,-1.9448,-1.9445,-1.9492,-1.9496,-1.9501,0,0,0,0,0,0,0,0,0,0,0,0,0,-1.9396,-1.9343,-1.9491,-1.9457,-1.9454,-1.9535,-1.9535,-1.9536,-1.9456,-1.9451,-1.9447,-1.9444,-1.949,-1.9496,-1.9501,-1.9617,0,0,-1.9518,-1.9521,0,0,0,0,0,0,0,0,-1.9393,-1.9402,-1.9462,-1.946,-1.9457,-1.9485,-1.9499,-1.9564,-1.9457,-1.9455,-1.9446,-1.9442,-1.9494,-1.9499,-1.9516,-1.962,-1.9622,-1.9519,-1.9522,-1.9525,-1.9526,0,0,0,0,0,0,0,-1.9389,-1.94,-1.9509,-1.9462,-1.946,-1.944,-1.9443,-1.9511,-1.9497,-1.9455,-1.9449,-1.9455,-1.9492,-1.9511,-1.9516,-1.9622,-1.9519,-1.9524,-1.9527,-1.9529,-1.9824,-1.9828,0,0,0,0,0,0,-1.9389,-1.9397,-1.9507,-1.951,-1.9414,-1.9446,-1.945,-1.948,-1.9496,-1.9494,-1.9459,-1.9451,-1.9503,-1.951,-1.9518,-1.9655,-1.9525,-1.953,-1.9533,-1.9819,-1.9825,-1.983,0,0,0,0,0,0,-1.9387,-1.94,-1.9505,-1.9452,-1.9464,-1.9453,-1.9487,-1.9483,-1.9502,-1.9499,-1.9496,-1.9481,-1.95,-1.951,-1.9593,-1.9656,-1.9533,-1.9538,-1.9814,-1.9821,-1.9827,-1.9932,0,0,0,0,0,0,-1.9383,-1.94,-1.9443,-1.9453,-1.9467,-1.958,-1.9491,-1.9487,-1.9512,-1.9503,-1.9519,-1.9517,-1.9498,-1.9585,-1.9599,-1.9661,-1.9542,-1.9809,-1.9817,-1.9825,-1.9923,-1.9941,-1.9957,0,0,0,0,0,-1.9377,-1.9472,-1.9446,-1.946,-1.9522,-1.9584,-1.9592,-1.9567,-1.9517,-1.9561,-1.9559,-1.9517,-1.9646,-1.9594,-1.9609,-1.9674,-1.9805,-1.9815,-1.9824,-1.9915,-1.9938,-1.9957,0,0,0,0,0,0,-1.947,-1.9472,-1.9444,-1.9544,-1.9565,-1.957,-1.9625,-1.9591,-1.9627,-1.9617,-1.9584,-1.9589,-1.9679,-1.9684,-1.9627,-1.9788,-1.9717,-1.9731,-1.9781,-1.9802,-1.9819,-1.9817,-1.9547,0,0,0,0,0,-1.9502,-1.9552,-1.9551,-1.964,-1.9651,-1.9637,-1.9663,-1.9642,-1.9662,-1.967,-1.9674,-1.9695,-1.9741,-1.9772,-1.9813,-1.9922,-1.9925,-1.9975,-1.9992,-2.0006,-2.0018,-2.0077,-2.0099,-1.9862,-1.9862,-1.9862,0,0,-1.9569,-1.9576,-1.961,-1.9658,-1.9672,-1.9725,-1.9645,-1.9704,-1.9744,-1.9679,-1.9759,-1.9762,-1.9784,-1.9881,-1.9924,-1.9888,-2.0084,-2.0018,-2.003,-2.0035,-2.009,-2.0112,-2.0132,-1.9869,-1.9868,-1.9867,0,0,-1.9718,-1.9728,-1.9803,-1.9818,-1.9838,-1.9828,-1.9846,-1.9857,-1.9857,-1.9935,-1.9888,-1.9934,-2.0013,-2.0031,-2.005,-2.0205,-2.0168,-2.022,-2.031,-2.0368,-2.0387,-2.0403,-2.0459,-2.048,-2.0232,-2.0232,-2.0232,0,-1.9799,-1.9877,-1.9846,-1.9909,-1.9932,-1.9875,-1.9951,-1.9967,-2.0001,-2.0019,-1.9978,-2.0076,-2.0086,-2.0187,-2.0225,-2.0242,-2.0262,-2.0219,-2.0386,-2.0402,-2.0417,-2.0471,-2.0492,-2.0238,-2.0238,-2.0237,-2.0236,0,-1.9975,-2.003,-2.0088,-2.0122,-2.0151,-2.022,-2.0201,-2.0234,-2.021,-2.0204,-2.0285,-2.0295,-2.0338,-2.036,-2.0338,-2.0458,-2.0436,-2.0391,-2.032,-2.0447,-2.0496,-2.0516,-2.0247,-2.0245,-2.0243,-2.0242,0,0,-2.0186,-2.0201,-2.0223,-2.0237,-2.0255,-2.0297,-2.0364,-2.0405,-2.0435,-2.046,-2.0516,-2.0583,-2.0542,-2.0564,-2.0543,-2.0593,-2.0716,-2.0542,-2.0542,-2.0576,-2.0851,-2.0885,-2.091,-2.0691,-2.0695,-2.0698,-2.0849,0,-2.0335,-2.0449,-2.0424,-2.0537,-2.0587,-2.0533,-2.0591,-2.0609,-2.0605,-2.0648,-2.0643,-2.0692,-2.0633,-2.0646,-2.0694,-2.0692,-2.0772,-2.068,-2.0744,-2.0746,-2.0742,-2.0935,-2.0972,-2.1115,-2.0869,-2.0872,-2.0874,0,-2.0524,-2.0556,-2.0674,-2.0684,-2.0704,-2.0757,-2.0793,-2.0834,-2.0853,-2.0846,-2.0871,-2.0839,-2.0906,-2.0832,-2.0924,-2.0862,-2.0886,-2.0889,-2.0894,-2.09,-2.0819,-2.0949,-2.116,-2.1182,-2.0904,-2.0902,-2.09,0,-2.0668,-2.074,-2.082,-2.0833,-2.0847,-2.0885,-2.0893,-2.0907,-2.0934,-2.0965,-2.0982,-2.1021,-2.1043,-2.1074,-2.1054,-2.1002,-2.1149,-2.1074,-2.1147,-2.1147,-2.1182,-2.118,-2.1401,-2.1195,-2.1194,-2.1194,-2.1194,0,-2.0838,-2.0913,-2.0884,-2.0934,-2.1016,-2.0985,-2.1068,-2.1069,-2.1082,-2.1131,-2.1087,-2.1134,-2.1104,-2.1149,-2.1133,-2.1212,-2.1222,-2.1219,-2.1214,-2.1224,-2.1225,-2.1241,-2.1231,-2.12,-2.1198,-2.1197,-2.1196,0,-2.1013,-2.0997,-2.108,-2.1086,-2.1089,-2.1149,-2.1154,-2.12,-2.1192,-2.1255,-2.1268,-2.1256,-2.1306,-2.1289,-2.1343,-2.1332,-2.1433,-2.1415,-2.1427,-2.1423,-2.1497,-2.1491,-2.1738,-2.1769,-2.1541,-2.1543,-2.1545,0,-2.1123,-2.118,-2.1191,-2.122,-2.1231,-2.1279,-2.1305,-2.1277,-2.1306,-2.1332,-2.1376,-2.1422,-2.1457,-2.154,-2.1537,-2.1578,-2.1561,-2.1645,-2.1567,-2.1575,-2.1564,-2.1562,-2.1568,-2.1661,-2.1664,-2.1666,-2.1668,0,-2.1322,-2.1311,-2.135,-2.1388,-2.1421,-2.1449,-2.1473,-2.1499,-2.1472,-2.1508,-2.1559,-2.1586,-2.1641,-2.1688,-2.1725,-2.1733,-2.1697,-2.1692,-2.1711,-2.1722,-2.1728,-2.1727,-2.1471,-2.1687,-2.1685,-2.1683,-2.1682,-2.1682,-2.1469,-2.1516,-2.1532,-2.1578,-2.1592,-2.1616,-2.166,-2.1657,-2.1698,-2.174,-2.1721,-2.178,-2.1797,-2.1843,-2.1856,-2.1902,-2.1869,-2.1897,-2.1904,-2.1912,-2.1922,-2.1719,-2.1908,-2.1907,-2.1907,-2.1906,-2.1906,0,-2.1666,-2.1673,-2.1715,-2.175,-2.1786,-2.1747,-2.1772,-2.1805,-2.1857,-2.1876,-2.1912,-2.197,-2.2015,-2.2015,-2.2056,-2.2093,-2.2078,-2.2106,-2.2103,-2.2106,-2.1948,-2.1928,-2.2117,-2.2117,-2.2117,-2.2117,-2.2117,-2.2117,-2.1773,-2.1852,-2.1842,-2.1928,-2.1934,-2.1991,-2.2009,-2.203,-2.2045,-2.2112,-2.2149,-2.2148,-2.2159,-2.2201,-2.2241,-2.224,-2.2258,-2.2293,-2.2285,-2.2138,-2.2117,-2.2097,-2.2078,-2.2296,-2.2297,-2.244,-2.2441,-2.2442]},{"header":{"parameterUnit":"m.s-1","parameterCategory":1,"la1":30.2991,"la2":30.254,"lo1":-89.0895,"lo2":-89.0444,"dy":0.0017,"dx":0.0017,"nx":28,"ny":28,"refTime":"2026-02-08T09:00:00:Z","depth":0,"parameterNumber":3,"parameterNumberName":"V-component_of_WINDS"},"data":[0,0,0,0,0,0,0,0,0,0,0,0,0,0,0,0,0,0,0,0,0,0,0,0,0,0,0,0,0,0,0,0,0,0,0,0,0,0,0,0,0,0,0,0,0,0,0,0,0,0,0,0,0,0,0,0,0,0,-2.5047,-2.5048,0,-2.5102,-2.5102,-2.5103,-2.5094,-2.5093,-2.5092,-2.5091,-2.5144,-2.5146,-2.5148,0,0,0,0,0,0,0,0,0,0,0,0,0,-2.493,-2.4932,-2.5047,-2.5048,-2.5048,-2.5102,-2.5103,-2.5103,-2.5094,-2.5093,-2.5091,-2.509,-2.5143,-2.5146,-2.5148,0,0,0,0,0,0,0,0,0,0,0,0,0,-2.4982,-2.4933,-2.5047,-2.505,-2.5051,-2.5102,-2.5103,-2.5103,-2.5094,-2.5093,-2.5091,-2.509,-2.5142,-2.5145,-2.5149,-2.5199,0,0,-2.5159,-2.5161,0,0,0,0,0,0,0,0,-2.4979,-2.4987,-2.5049,-2.505,-2.5051,-2.509,-2.5081,-2.5135,-2.5094,-2.5078,-2.5091,-2.5089,-2.5127,-2.5131,-2.5144,-2.5201,-2.5203,-2.516,-2.5162,-2.5163,-2.5164,0,0,0,0,0,0,0,-2.4976,-2.4984,-2.5069,-2.505,-2.5051,-2.5048,-2.5053,-2.5091,-2.5109,-2.5079,-2.5078,-2.5085,-2.5127,-2.5141,-2.5146,-2.5204,-2.5159,-2.5162,-2.5165,-2.5166,-2.5303,-2.5304,0,0,0,0,0,0,-2.4972,-2.4981,-2.5067,-2.507,-2.5011,-2.5051,-2.5057,-2.5079,-2.5109,-2.5112,-2.5086,-2.5084,-2.5136,-2.5142,-2.5147,-2.5207,-2.5163,-2.5166,-2.5168,-2.5301,-2.5303,-2.5305,0,0,0,0,0,0,-2.4969,-2.4979,-2.5065,-2.5026,-2.5036,-2.5054,-2.5078,-2.508,-2.5095,-2.5115,-2.5117,-2.5098,-2.5135,-2.5143,-2.5186,-2.5209,-2.5168,-2.5171,-2.5299,-2.5302,-2.5304,-2.5327,0,0,0,0,0,0,-2.4966,-2.4979,-2.4999,-2.5026,-2.5038,-2.5103,-2.508,-2.5082,-2.5101,-2.5099,-2.5126,-2.5129,-2.5135,-2.5181,-2.5189,-2.5213,-2.5174,-2.5297,-2.53,-2.5303,-2.5324,-2.5329,-2.5334,0,0,0,0,0,-2.4962,-2.5002,-2.5,-2.501,-2.5064,-2.5105,-2.5111,-2.5118,-2.5103,-2.5123,-2.5135,-2.5128,-2.5205,-2.5185,-2.5195,-2.5219,-2.5296,-2.5299,-2.5303,-2.5321,-2.5328,-2.5334,0,0,0,0,0,0,-2.4976,-2.5006,-2.5004,-2.5055,-2.5077,-2.5103,-2.5128,-2.5125,-2.5151,-2.5148,-2.5154,-2.516,-2.5204,-2.5216,-2.5194,-2.5268,-2.5248,-2.5254,-2.5259,-2.5266,-2.5271,-2.5266,-2.5177,0,0,0,0,0,-2.4986,-2.5017,-2.5041,-2.5084,-2.5096,-2.511,-2.5128,-2.5131,-2.5154,-2.5163,-2.5179,-2.5201,-2.5229,-2.5248,-2.5276,-2.5326,-2.5331,-2.5347,-2.5352,-2.5356,-2.5361,-2.5387,-2.5394,-2.5316,-2.5316,-2.5316,0,0,-2.5005,-2.5025,-2.5044,-2.5087,-2.5105,-2.5136,-2.5118,-2.5152,-2.5175,-2.5168,-2.521,-2.5222,-2.5247,-2.5293,-2.5314,-2.5304,-2.5384,-2.5361,-2.5364,-2.5366,-2.5391,-2.5398,-2.5405,-2.5319,-2.5318,-2.5318,0,0,-2.5055,-2.5075,-2.5112,-2.513,-2.5158,-2.5167,-2.5176,-2.5202,-2.521,-2.5253,-2.5248,-2.5274,-2.5324,-2.5342,-2.5357,-2.5414,-2.5408,-2.5422,-2.5449,-2.5474,-2.548,-2.5486,-2.5505,-2.5512,-2.5427,-2.5427,-2.5427,0,-2.5075,-2.5124,-2.5131,-2.5166,-2.5184,-2.518,-2.5217,-2.5234,-2.5269,-2.5281,-2.527,-2.5332,-2.5348,-2.5398,-2.5412,-2.5425,-2.5434,-2.5419,-2.5479,-2.5484,-2.549,-2.5508,-2.5515,-2.5429,-2.5428,-2.5428,-2.5428,0,-2.5146,-2.518,-2.5206,-2.5241,-2.5262,-2.5298,-2.5309,-2.5329,-2.533,-2.534,-2.5382,-2.5402,-2.5433,-2.5445,-2.5446,-2.5495,-2.5488,-2.5478,-2.5457,-2.5498,-2.5515,-2.5523,-2.5431,-2.543,-2.543,-2.5429,0,0,-2.5208,-2.5246,-2.5255,-2.527,-2.53,-2.5326,-2.536,-2.5391,-2.5408,-2.5432,-2.546,-2.5502,-2.5493,-2.5511,-2.5514,-2.5536,-2.5578,-2.5523,-2.5524,-2.5532,-2.5631,-2.5637,-2.5646,-2.5574,-2.5576,-2.5577,-2.5628,0,-2.526,-2.5323,-2.533,-2.5385,-2.5415,-2.5411,-2.5441,-2.5462,-2.5472,-2.5498,-2.5509,-2.5538,-2.5524,-2.5535,-2.5557,-2.5568,-2.5598,-2.5565,-2.5599,-2.56,-2.5592,-2.5655,-2.5662,-2.571,-2.5635,-2.5637,-2.5637,0,-2.533,-2.5357,-2.5415,-2.544,-2.5453,-2.548,-2.5509,-2.5534,-2.5557,-2.5563,-2.5582,-2.5582,-2.5616,-2.5594,-2.5641,-2.5618,-2.5633,-2.564,-2.5642,-2.5645,-2.5621,-2.5658,-2.5725,-2.5732,-2.5648,-2.5647,-2.5647,0,-2.5368,-2.5418,-2.5459,-2.5473,-2.5503,-2.5522,-2.5535,-2.5557,-2.5575,-2.5599,-2.5611,-2.5639,-2.5654,-2.5675,-2.5682,-2.5666,-2.5727,-2.5707,-2.5732,-2.5731,-2.5744,-2.5743,-2.5814,-2.5755,-2.5755,-2.5755,-2.5755,0,-2.5425,-2.5461,-2.5476,-2.5502,-2.5541,-2.5548,-2.5586,-2.5598,-2.5617,-2.5644,-2.5642,-2.5667,-2.5675,-2.57,-2.5706,-2.5742,-2.5749,-2.5754,-2.5754,-2.5753,-2.5753,-2.5762,-2.5759,-2.5757,-2.5756,-2.5756,-2.5756,0,-2.5474,-2.5486,-2.553,-2.5555,-2.5562,-2.559,-2.5611,-2.5634,-2.5644,-2.5677,-2.5685,-2.57,-2.573,-2.5739,-2.5775,-2.5778,-2.5821,-2.5819,-2.5813,-2.5813,-2.5837,-2.5834,-2.5915,-2.5926,-2.5861,-2.5862,-2.5863,0,-2.5509,-2.5536,-2.5565,-2.5583,-2.5597,-2.5626,-2.5645,-2.5653,-2.5672,-2.5699,-2.5719,-2.5749,-2.5773,-2.582,-2.5833,-2.586,-2.5859,-2.5885,-2.5863,-2.586,-2.5858,-2.5856,-2.5858,-2.5889,-2.589,-2.589,-2.5891,0,-2.557,-2.5575,-2.5603,-2.5632,-2.5654,-2.5677,-2.57,-2.5714,-2.5725,-2.5746,-2.5777,-2.5796,-2.5833,-2.5861,-2.5889,-2.5901,-2.5897,-2.5898,-2.5905,-2.5903,-2.5899,-2.59,-2.5824,-2.5896,-2.5895,-2.5895,-2.5895,-2.5894,-2.5613,-2.5636,-2.566,-2.569,-2.5708,-2.5729,-2.5752,-2.5764,-2.5791,-2.5822,-2.5824,-2.5857,-2.5878,-2.5915,-2.5928,-2.5953,-2.5945,-2.5956,-2.5958,-2.596,-2.5962,-2.5895,-2.5958,-2.5958,-2.5958,-2.5958,-2.5958,0,-2.5673,-2.5688,-2.5716,-2.5747,-2.5771,-2.5767,-2.5791,-2.581,-2.584,-2.586,-2.5884,-2.5919,-2.5947,-2.5962,-2.5989,-2.6006,-2.6005,-2.6013,-2.6011,-2.6014,-2.5968,-2.5959,-2.6013,-2.6013,-2.6013,-2.6013,-2.6013,-2.6013,-2.5707,-2.5747,-2.5754,-2.5801,-2.5816,-2.5849,-2.5863,-2.5881,-2.5898,-2.5937,-2.5961,-2.5971,-2.5989,-2.6017,-2.6042,-2.6046,-2.6055,-2.6064,-2.6066,-2.6023,-2.6017,-2.6012,-2.6003,-2.6066,-2.6066,-2.611,-2.6111,-2.6111]}]]